CES219 ZSPD-EDDF

Flight info

Callsign CES219
Flight time N/A
Altitude 38000
Route K0924S0920 ODU83D ODULO B221 XDX W174 TAO W103 JDW V89 DOVIV W55 PAMRU W34 LADIX B339 POLHO/K0913S0980 Y520 SERNA/K0904F320 A822 LONKA R497 KUMOD/K0893F340 N869 LITUN T580 POBEM/K0895F360 N869 DURTI/K0882F380 L29 LAFAT/N0475F380 DCT SUWGI L735 OLBIK DCT VELIS T843 ARNIX DCT KERAX KERAX5A
Aircraft B77W/H-SDE1E2E3FGHIJ2J3J4J5M1RWXY/LB1D1

Departure

Time N/A
Airport Shanghai Pudong International Airport (ZSPD)

Arrival

Time 2026-05-06 03:24
Airport Frankfurt Main Airport (EDDF)
Time Latitude Longitude Altitude Speed Heading
2026-05-06 01:45 54.30685 23.75800 37873 ft 441 kts 246°
2026-05-06 01:45 54.29532 23.71555 37868 ft 441 kts 246°
2026-05-06 01:45 54.27937 23.65691 37861 ft 442 kts 246°
2026-05-06 01:46 54.26035 23.58721 37889 ft 441 kts 246°
2026-05-06 01:46 54.24365 23.52613 37802 ft 443 kts 246°
2026-05-06 01:47 54.22730 23.46653 37807 ft 442 kts 246°
2026-05-06 01:47 54.21955 23.43833 37943 ft 439 kts 245°
2026-05-06 01:47 54.21116 23.40789 38092 ft 438 kts 246°
2026-05-06 01:48 54.20295 23.37811 37901 ft 442 kts 246°
2026-05-06 01:48 54.18997 23.33099 37903 ft 442 kts 246°
2026-05-06 01:48 54.17063 23.26088 37856 ft 443 kts 246°
2026-05-06 01:49 54.14499 23.16837 37858 ft 443 kts 246°
2026-05-06 01:49 54.12233 23.08693 37869 ft 442 kts 246°
2026-05-06 01:50 54.09649 22.99440 37860 ft 442 kts 245°
2026-05-06 01:50 54.07033 22.90007 37863 ft 442 kts 247°
2026-05-06 01:51 54.04948 22.80168 37862 ft 442 kts 251°
2026-05-06 01:51 54.03176 22.71377 37861 ft 443 kts 251°
2026-05-06 01:52 54.01307 22.62197 37856 ft 444 kts 251°
2026-05-06 01:52 53.99287 22.52373 37864 ft 443 kts 251°
2026-05-06 01:53 53.97561 22.44043 37854 ft 443 kts 251°
2026-05-06 01:53 53.95504 22.34168 37857 ft 443 kts 251°
2026-05-06 01:54 53.93443 22.24312 37854 ft 443 kts 251°
2026-05-06 01:54 53.91388 22.14535 37856 ft 442 kts 251°
2026-05-06 01:55 53.89313 22.04711 37854 ft 442 kts 251°
2026-05-06 01:55 53.87232 21.94902 37870 ft 442 kts 251°
2026-05-06 01:56 53.85140 21.85093 37856 ft 441 kts 251°
2026-05-06 01:56 53.83046 21.75324 37856 ft 441 kts 251°
2026-05-06 01:57 53.80950 21.65588 37854 ft 440 kts 251°
2026-05-06 01:57 53.78858 21.55916 37851 ft 440 kts 250°
2026-05-06 01:58 53.76745 21.46193 37857 ft 440 kts 250°
2026-05-06 01:58 53.74620 21.36462 37869 ft 441 kts 250°
2026-05-06 01:59 53.72484 21.26727 37873 ft 442 kts 250°
2026-05-06 01:59 53.70340 21.17002 37861 ft 442 kts 250°
2026-05-06 02:00 53.68185 21.07270 37854 ft 442 kts 250°
2026-05-06 02:00 53.66036 20.97614 37839 ft 442 kts 250°
2026-05-06 02:01 53.63873 20.87935 37868 ft 441 kts 250°
2026-05-06 02:01 53.61695 20.78237 37858 ft 442 kts 250°
2026-05-06 02:02 53.59512 20.68558 37847 ft 442 kts 250°
2026-05-06 02:02 53.57339 20.58962 37846 ft 442 kts 250°
2026-05-06 02:03 53.55140 20.49301 37863 ft 442 kts 249°
2026-05-06 02:03 53.52932 20.39653 37864 ft 442 kts 249°
2026-05-06 02:04 53.50716 20.30012 37850 ft 442 kts 249°
2026-05-06 02:04 53.48491 20.20370 37848 ft 443 kts 249°
2026-05-06 02:05 53.46251 20.10699 37848 ft 443 kts 249°
2026-05-06 02:05 53.44008 20.01062 37839 ft 444 kts 249°
2026-05-06 02:06 53.41763 19.91455 37839 ft 444 kts 249°
2026-05-06 02:06 53.39513 19.81877 37832 ft 443 kts 249°
2026-05-06 02:07 53.37255 19.72307 37831 ft 443 kts 249°
2026-05-06 02:07 53.34991 19.62752 37842 ft 443 kts 249°
2026-05-06 02:08 53.32722 19.53215 37833 ft 443 kts 249°
2026-05-06 02:08 53.30443 19.43677 37836 ft 443 kts 249°
2026-05-06 02:09 53.28146 19.34114 37832 ft 443 kts 248°
2026-05-06 02:09 53.25865 19.24653 37822 ft 443 kts 248°
2026-05-06 02:10 53.23565 19.15156 37843 ft 443 kts 248°
2026-05-06 02:10 53.21257 19.05668 37801 ft 443 kts 248°
2026-05-06 02:11 53.18937 18.96171 37823 ft 443 kts 248°
2026-05-06 02:11 53.16601 18.86650 37828 ft 443 kts 248°
2026-05-06 02:12 53.14275 18.77213 37823 ft 443 kts 248°
2026-05-06 02:12 53.11921 18.67700 37822 ft 444 kts 248°
2026-05-06 02:13 53.09565 18.58220 37814 ft 443 kts 248°
2026-05-06 02:13 53.07214 18.48804 37825 ft 443 kts 248°
2026-05-06 02:14 53.04843 18.39343 37820 ft 442 kts 247°
2026-05-06 02:14 53.02607 18.30462 37813 ft 441 kts 247°
2026-05-06 02:15 53.00252 18.21146 37792 ft 440 kts 247°
2026-05-06 02:15 52.97999 18.12268 37789 ft 439 kts 247°
2026-05-06 02:16 52.95616 18.02911 37793 ft 439 kts 247°
2026-05-06 02:16 52.93231 17.93588 37798 ft 439 kts 246°
2026-05-06 02:17 52.90841 17.84288 37809 ft 438 kts 246°
2026-05-06 02:17 52.88586 17.75542 37812 ft 438 kts 246°
2026-05-06 02:18 52.86183 17.66256 37804 ft 439 kts 246°
2026-05-06 02:18 52.83923 17.57569 37806 ft 440 kts 246°
2026-05-06 02:19 52.81493 17.48266 37796 ft 440 kts 246°
2026-05-06 02:19 52.79108 17.39171 37798 ft 441 kts 246°
2026-05-06 02:20 52.75441 17.25243 37791 ft 441 kts 246°
2026-05-06 02:21 52.72998 17.16009 37786 ft 441 kts 245°
2026-05-06 02:21 52.70752 17.07553 37778 ft 441 kts 245°
2026-05-06 02:22 52.68277 16.98280 37785 ft 442 kts 245°
2026-05-06 02:22 52.65828 16.89147 37785 ft 442 kts 245°
2026-05-06 02:23 52.63361 16.79981 37785 ft 442 kts 245°
2026-05-06 02:23 52.60881 16.70800 37788 ft 442 kts 245°
2026-05-06 02:24 52.58799 16.63117 37780 ft 442 kts 245°
2026-05-06 02:24 52.55861 16.52317 37771 ft 442 kts 244°
2026-05-06 02:25 52.53358 16.43157 37781 ft 441 kts 244°
2026-05-06 02:25 52.51114 16.34976 37778 ft 441 kts 244°
2026-05-06 02:26 52.48597 16.25839 37787 ft 441 kts 244°
2026-05-06 02:26 52.46590 16.18573 37785 ft 441 kts 244°
2026-05-06 02:27 52.43812 16.08558 37802 ft 441 kts 244°
2026-05-06 02:27 52.41649 16.00785 37791 ft 441 kts 244°
2026-05-06 02:28 52.39650 15.93636 37792 ft 441 kts 244°
2026-05-06 02:28 52.37161 15.84752 37779 ft 441 kts 244°
2026-05-06 02:29 52.34644 15.75800 37778 ft 441 kts 244°
2026-05-06 02:29 52.32183 15.67083 37782 ft 441 kts 244°
2026-05-06 02:30 52.29712 15.58365 37772 ft 441 kts 244°
2026-05-06 02:30 52.27127 15.49279 37799 ft 441 kts 244°
2026-05-06 02:31 52.24792 15.41100 37780 ft 442 kts 244°
2026-05-06 02:31 52.22626 15.33543 37767 ft 441 kts 243°
2026-05-06 02:32 52.20797 15.27191 37778 ft 441 kts 243°
2026-05-06 02:32 52.18497 15.19205 37768 ft 441 kts 243°
2026-05-06 02:33 52.16493 15.12273 37752 ft 441 kts 243°
2026-05-06 02:33 52.15700 15.09532 37757 ft 441 kts 243°
2026-05-06 02:34 52.11795 14.96092 37764 ft 440 kts 243°
2026-05-06 02:34 52.09167 14.87088 37779 ft 440 kts 243°
2026-05-06 02:35 52.06538 14.78112 37762 ft 441 kts 242°
2026-05-06 02:35 52.03966 14.69060 37754 ft 441 kts 244°
2026-05-06 02:36 52.01519 14.59915 37755 ft 441 kts 244°
2026-05-06 02:36 51.99058 14.50772 37759 ft 441 kts 244°
2026-05-06 02:37 51.96590 14.41720 37757 ft 441 kts 244°
2026-05-06 02:37 51.94091 14.32611 37755 ft 441 kts 243°
2026-05-06 02:38 51.91589 14.23517 37753 ft 441 kts 243°
2026-05-06 02:38 51.89071 14.14437 37753 ft 441 kts 243°
2026-05-06 02:39 51.86516 14.05469 37754 ft 441 kts 243°
2026-05-06 02:39 51.83941 13.96439 37757 ft 441 kts 243°
2026-05-06 02:40 51.81408 13.87413 37755 ft 441 kts 243°
2026-05-06 02:40 51.78876 13.78372 37757 ft 442 kts 243°
2026-05-06 02:41 51.76327 13.69324 37776 ft 442 kts 243°
2026-05-06 02:41 51.73783 13.60341 37757 ft 443 kts 243°
2026-05-06 02:42 51.71206 13.51272 37748 ft 444 kts 242°
2026-05-06 02:42 51.68618 13.42198 37751 ft 445 kts 242°
2026-05-06 02:43 51.65977 13.33279 37756 ft 444 kts 238°
2026-05-06 02:43 51.62715 13.24887 37747 ft 444 kts 235°
2026-05-06 02:44 51.59359 13.16520 37748 ft 444 kts 235°
2026-05-06 02:44 51.56015 13.08150 37760 ft 444 kts 235°
2026-05-06 02:45 51.52675 12.99781 37744 ft 445 kts 235°
2026-05-06 02:45 51.49323 12.91397 37746 ft 446 kts 235°
2026-05-06 02:46 51.45986 12.83076 37745 ft 447 kts 235°
2026-05-06 02:46 51.42608 12.74683 37742 ft 447 kts 235°
2026-05-06 02:47 51.39222 12.66297 37734 ft 447 kts 234°
2026-05-06 02:47 51.35857 12.57992 37740 ft 447 kts 234°
2026-05-06 02:48 51.32457 12.49625 37749 ft 448 kts 234°
2026-05-06 02:48 51.29046 12.41260 37756 ft 448 kts 234°
2026-05-06 02:49 51.25651 12.32961 37739 ft 449 kts 234°
2026-05-06 02:49 51.22222 12.24605 37740 ft 450 kts 234°
2026-05-06 02:50 51.18786 12.16258 37742 ft 450 kts 234°
2026-05-06 02:50 51.15361 12.07967 37746 ft 450 kts 234°
2026-05-06 02:51 51.11905 11.99625 37754 ft 451 kts 234°
2026-05-06 02:51 51.08441 11.91292 37771 ft 451 kts 234°
2026-05-06 02:52 51.04968 11.82964 37763 ft 452 kts 234°
2026-05-06 02:52 51.01479 11.74624 37768 ft 453 kts 234°
2026-05-06 02:53 50.97998 11.66331 37770 ft 454 kts 234°
2026-05-06 02:53 50.94491 11.57999 37774 ft 454 kts 234°
2026-05-06 02:54 50.90969 11.49661 37770 ft 455 kts 234°
2026-05-06 02:54 50.87430 11.41310 37776 ft 455 kts 234°
2026-05-06 02:55 50.83923 11.33060 37787 ft 455 kts 234°
2026-05-06 02:55 50.80384 11.24760 37786 ft 455 kts 234°
2026-05-06 02:56 50.76828 11.16447 37776 ft 456 kts 234°
2026-05-06 02:56 50.73262 11.08137 37784 ft 456 kts 234°
2026-05-06 02:57 50.69698 10.99858 37785 ft 457 kts 234°
2026-05-06 02:57 50.66119 10.91572 37782 ft 457 kts 234°
2026-05-06 02:58 50.62556 10.83347 37794 ft 457 kts 234°
2026-05-06 02:58 50.58960 10.75070 37815 ft 457 kts 234°
2026-05-06 02:59 50.55355 10.66801 37793 ft 458 kts 234°
2026-05-06 02:59 50.51748 10.58546 37792 ft 459 kts 234°
2026-05-06 03:00 50.48768 10.51040 37794 ft 459 kts 247°
2026-05-06 03:00 50.47932 10.46195 37798 ft 463 kts 259°
2026-05-06 03:00 50.47757 10.41131 37799 ft 467 kts 271°
2026-05-06 03:01 50.49070 10.31102 37801 ft 471 kts 281°
2026-05-06 03:01 50.50585 10.21063 37800 ft 473 kts 279°
2026-05-06 03:02 50.51636 10.13606 37800 ft 475 kts 279°
2026-05-06 03:02 50.53018 10.03503 37644 ft 478 kts 278°
2026-05-06 03:02 50.53428 9.98298 36819 ft 476 kts 269°
2026-05-06 03:03 50.53341 9.93193 36166 ft 457 kts 262°
2026-05-06 03:03 50.52893 9.88322 35449 ft 445 kts 254°
2026-05-06 03:03 50.52090 9.83683 34694 ft 436 kts 251°
2026-05-06 03:03 50.51244 9.79114 33932 ft 434 kts 251°
2026-05-06 03:04 50.50407 9.74549 33055 ft 438 kts 252°
2026-05-06 03:04 50.49566 9.69881 32179 ft 452 kts 252°
2026-05-06 03:04 50.48705 9.65028 31251 ft 475 kts 252°
2026-05-06 03:04 50.47805 9.59947 30273 ft 487 kts 253°
2026-05-06 03:05 50.46893 9.54859 29525 ft 481 kts 252°
2026-05-06 03:05 50.45964 9.49902 28749 ft 475 kts 252°
2026-05-06 03:05 50.45025 9.44985 28048 ft 467 kts 251°
2026-05-06 03:05 50.44095 9.40129 27372 ft 460 kts 251°
2026-05-06 03:06 50.43184 9.35356 26687 ft 454 kts 251°
2026-05-06 03:06 50.42285 9.30636 26000 ft 449 kts 251°
2026-05-06 03:06 50.41392 9.25951 25335 ft 444 kts 251°
2026-05-06 03:06 50.40446 9.21358 24674 ft 440 kts 249°
2026-05-06 03:07 50.39395 9.16887 24055 ft 436 kts 248°
2026-05-06 03:07 50.38344 9.12518 23504 ft 430 kts 248°
2026-05-06 03:07 50.37302 9.08133 22807 ft 426 kts 248°
2026-05-06 03:07 50.36319 9.03920 22607 ft 392 kts 248°
2026-05-06 03:08 50.35430 9.00088 22291 ft 361 kts 248°
2026-05-06 03:08 50.34595 8.96506 21759 ft 340 kts 248°
2026-05-06 03:08 50.33796 8.93092 21015 ft 328 kts 248°
2026-05-06 03:08 50.33008 8.89807 20337 ft 316 kts 243°
2026-05-06 03:09 50.31779 8.87070 19556 ft 305 kts 220°
2026-05-06 03:09 50.29957 8.85413 19153 ft 304 kts 199°
2026-05-06 03:09 50.28612 8.84872 18917 ft 302 kts 190°
2026-05-06 03:09 50.25825 8.84942 18014 ft 301 kts 162°
2026-05-06 03:10 50.24118 8.86680 17160 ft 303 kts 132°
2026-05-06 03:10 50.23185 8.89603 16200 ft 311 kts 104°
2026-05-06 03:10 50.23058 8.92988 15262 ft 315 kts 86°
2026-05-06 03:10 50.23505 8.96329 14433 ft 315 kts 73°
2026-05-06 03:11 50.24256 8.99544 13621 ft 314 kts 69°
2026-05-06 03:11 50.25059 9.02700 12786 ft 311 kts 69°
2026-05-06 03:11 50.25828 9.05829 11998 ft 307 kts 70°
2026-05-06 03:11 50.26572 9.08936 11255 ft 303 kts 70°
2026-05-06 03:12 50.27285 9.11976 10521 ft 299 kts 71°
2026-05-06 03:12 50.27993 9.15021 9791 ft 296 kts 71°
2026-05-06 03:12 50.28689 9.18029 9037 ft 293 kts 71°
2026-05-06 03:12 50.29303 9.21039 8268 ft 288 kts 83°
2026-05-06 03:13 50.29201 9.24099 7482 ft 280 kts 110°
2026-05-06 03:13 50.28638 9.25931 6970 ft 274 kts 130°
2026-05-06 03:13 50.26679 9.28186 6077 ft 263 kts 168°
2026-05-06 03:13 50.24902 9.28339 5496 ft 254 kts 197°
2026-05-06 03:14 50.23282 9.27225 5447 ft 263 kts 216°
2026-05-06 03:14 50.22306 9.25941 5475 ft 289 kts 230°
2026-05-06 03:14 50.21082 9.23263 5524 ft 315 kts 239°
2026-05-06 03:14 50.19513 9.19272 5501 ft 328 kts 239°
2026-05-06 03:15 50.18702 9.17274 5451 ft 316 kts 238°
2026-05-06 03:15 50.17548 9.14499 5290 ft 293 kts 238°
2026-05-06 03:15 50.16417 9.10992 5094 ft 257 kts 249°
2026-05-06 03:15 50.16010 9.09293 5047 ft 245 kts 250°
2026-05-06 03:16 50.15441 9.06822 5025 ft 241 kts 250°
2026-05-06 03:16 50.14877 9.04397 5025 ft 234 kts 250°
2026-05-06 03:16 50.14336 9.02097 5005 ft 215 kts 250°
2026-05-06 03:16 50.13853 9.00057 5005 ft 187 kts 250°
2026-05-06 03:17 50.13419 8.98230 5031 ft 176 kts 250°
2026-05-06 03:17 50.12996 8.96448 5016 ft 175 kts 250°
2026-05-06 03:17 50.12572 8.94662 5008 ft 176 kts 250°
2026-05-06 03:17 50.12149 8.92878 4954 ft 177 kts 250°
2026-05-06 03:18 50.11719 8.91068 4732 ft 177 kts 250°
2026-05-06 03:18 50.11292 8.89273 4497 ft 175 kts 250°
2026-05-06 03:18 50.10870 8.87496 4251 ft 172 kts 250°
2026-05-06 03:18 50.10463 8.85782 4031 ft 171 kts 250°
2026-05-06 03:19 50.10049 8.84042 3800 ft 172 kts 250°
2026-05-06 03:19 50.09635 8.82300 3575 ft 173 kts 250°
2026-05-06 03:19 50.09220 8.80554 3329 ft 169 kts 249°
2026-05-06 03:19 50.08843 8.78967 3131 ft 155 kts 249°
2026-05-06 03:20 50.08129 8.75966 2722 ft 147 kts 249°
2026-05-06 03:20 50.07784 8.74515 2526 ft 145 kts 249°
2026-05-06 03:20 50.07455 8.73134 2349 ft 142 kts 249°
2026-05-06 03:21 50.07105 8.71666 2160 ft 144 kts 249°
2026-05-06 03:21 50.06760 8.70217 1961 ft 144 kts 249°
2026-05-06 03:21 50.06448 8.68905 1789 ft 145 kts 249°
2026-05-06 03:21 50.06096 8.67431 1590 ft 142 kts 249°
2026-05-06 03:22 50.05765 8.66036 1381 ft 134 kts 248°
2026-05-06 03:22 50.05452 8.64720 1217 ft 130 kts 248°
2026-05-06 03:22 50.05118 8.63326 1037 ft 142 kts 249°
2026-05-06 03:22 50.04774 8.61870 829 ft 142 kts 247°
2026-05-06 03:23 50.04428 8.60437 636 ft 143 kts 248°
2026-05-06 03:23 50.04079 8.58961 462 ft 147 kts 249°
2026-05-06 03:23 50.03733 8.57512 365 ft 133 kts 250°
2026-05-06 03:23 50.03466 8.56389 361 ft 87 kts 250°
2026-05-06 03:24 50.03314 8.55759 356 ft 38 kts 245°
2026-05-06 03:24 50.03240 8.55593 356 ft 9 kts 228°
2026-05-06 03:24 50.03207 8.55544 355 ft 7 kts 223°
2026-05-06 03:24 50.03170 8.55491 357 ft 7 kts 222°
2026-05-06 03:25 50.03125 8.55442 356 ft 9 kts 202°
2026-05-06 03:25 50.03066 8.55483 352 ft 12 kts 101°
2026-05-06 03:25 50.03092 8.55633 358 ft 17 kts 70°
2026-05-06 03:25 50.03138 8.55827 357 ft 21 kts 69°
2026-05-06 03:26 50.03195 8.56064 356 ft 25 kts 70°
2026-05-06 03:26 50.03262 8.56343 361 ft 30 kts 70°
2026-05-06 03:26 50.03331 8.56633 360 ft 23 kts 70°
2026-05-06 03:26 50.03341 8.56774 364 ft 11 kts 129°
2026-05-06 03:27 50.03275 8.56829 364 ft 11 kts 159°
2026-05-06 03:27 50.03203 8.56872 362 ft 11 kts 159°
2026-05-06 03:27 50.03132 8.56913 365 ft 11 kts 160°
2026-05-06 03:27 50.03062 8.56977 366 ft 12 kts 122°
2026-05-06 03:28 50.03025 8.57098 365 ft 13 kts 115°
2026-05-06 03:28 50.02988 8.57224 366 ft 9 kts 112°
2026-05-06 03:28 50.03001 8.57283 362 ft 2 kts 35°
2026-05-06 03:28 50.03014 8.57296 364 ft 3 kts 29°
2026-05-06 03:29 50.03038 8.57314 367 ft 3 kts 25°
2026-05-06 03:29 50.03052 8.57324 368 ft 1 kts 25°
2026-05-06 03:29 50.03058 8.57328 369 ft 1 kts 25°
2026-05-06 03:29 50.03061 8.57331 370 ft 0 kts 25°